HOWARD Weather Reports


time (UTC)temp
F
wind
direction
speed
knots
gust
knots
rain 1hr
in
rain 24hr
in
rain mn
in
humidity
%
barometer
mb
20260506002148 45 328 4.3 11.3 0.00 0.00 0.00 65 1010.8
20260506001148 46 330 4.3 20.9 0.00 0.00 0.00 63 1010.9
20260506000150 46 339 5.2 13.0 0.00 0.00 0.00 63 1010.9
20260505235148 46 314 4.3 16.5 0.00 0.00 0.00 63 1010.9
20260505234148 46 354 5.2 18.2 0.00 0.00 0.00 65 1010.9
20260505233149 46 350 3.5 13.0 0.00 0.00 0.00 62 1010.8
20260505232228 47 336 4.3 13.0 0.00 0.00 0.00 64 1010.8
20260505232148 47 336 4.3 13.0 0.00 0.00 0.00 64 1010.8
20260505231148 46 337 5.2 11.3 0.00 0.00 0.00 62 1010.8
20260505230148 46 344 4.3 11.3 0.00 0.00 0.00 62 1010.9
20260505225226 47 342 5.2 10.4 0.00 0.00 0.00 62 1011.0
20260505225148 47 342 5.2 10.4 0.00 0.00 0.00 62 1011.0
20260505224148 46 341 7.8 15.6 0.00 0.00 0.00 61 1010.9
20260505223149 48 343 5.2 17.4 0.00 0.00 0.00 58 1011.0
20260505222148 48 334 3.5 14.8 0.00 0.00 0.00 58 1011.0
20260505221148 48 313 4.3 13.0 0.00 0.00 0.00 58 1011.1
20260505220149 47 353 2.6 15.6 0.00 0.00 0.00 59 1011.1
20260505215148 46 304 3.5 16.5 0.00 0.00 0.00 59 1011.1
20260505214148 47 4 4.3 13.0 0.00 0.00 0.00 58 1011.1
20260505213148 47 343 6.1 10.4 0.00 0.00 0.00 59 1011.2
20260505212148 47 348 1.7 13.0 0.00 0.00 0.00 60 1011.1
20260505211148 46 306 3.5 13.0 0.00 0.00 0.00 62 1011.1
20260505210149 47 309 5.2 13.0 0.00 0.00 0.00 59 1011.2
20260505205148 47 294 6.1 13.9 0.00 0.00 0.00 60 1011.2
20260505204148 46 342 3.5 13.0 0.00 0.00 0.00 63 1011.2
20260505203148 48 350 1.7 12.2 0.00 0.00 0.00 59 1011.1
20260505202148 47 333 3.5 13.0 0.00 0.00 0.00 62 1011.1
20260505201148 48 295 7.0 14.8 0.00 0.00 0.00 59 1011.1
20260505200149 46 325 7.0 14.8 0.00 0.00 0.00 59 1011.2
20260505195148 45 308 6.1 13.0 0.00 0.00 0.00 62 1011.2
20260505194148 45 326 2.6 13.0 0.00 0.00 0.00 62 1011.3
20260505193149 46 298 4.3 11.3 0.00 0.00 0.00 61 1011.1
20260505192148 45 279 0.9 13.0 0.00 0.00 0.00 63 1011.1
20260505191148 45 312 4.3 10.4 0.00 0.00 0.00 62 1011.2
20260505190149 45 306 2.6 9.6 0.00 0.00 0.00 62 1011.1
20260505185148 45 299 4.3 9.6 0.00 0.00 0.00 63 1011.0
20260505184227 45 303 5.2 12.2 0.00 0.00 0.00 61 1011.0
20260505184148 45 303 5.2 12.2 0.00 0.00 0.00 61 1011.0
20260505183148 48 316 4.3 15.6 0.00 0.00 0.00 60 1010.8
20260505182148 45 23 4.3 12.2 0.00 0.00 0.00 60 1010.8
20260505181149 45 314 4.3 11.3 0.00 0.00 0.00 59 1010.8
20260505180148 46 352 3.5 12.2 0.00 0.00 0.00 58 1010.7
20260505175235 46 345 5.2 11.3 0.00 0.00 0.00 57 1010.6
20260505175149 46 345 5.2 11.3 0.00 0.00 0.00 57 1010.6
20260505174148 45 356 3.5 8.7 0.00 0.00 0.00 57 1010.6
20260505173148 45 343 5.2 10.4 0.00 0.00 0.00 57 1010.4
20260505172148 46 359 3.5 9.6 0.00 0.00 0.00 57 1010.5
20260505171148 45 344 4.3 9.6 0.00 0.00 0.00 57 1010.3
20260505170148 45 343 4.3 8.7 0.00 0.00 0.00 55 1010.2
20260505165148 45 9 4.3 11.3 0.00 0.00 0.00 56 1010.2
20260505164253 45 341 5.2 10.4 0.00 0.00 0.00 54 1010.0
20260505164148 45 341 5.2 10.4 0.00 0.00 0.00 54 1010.0
20260505163148 44 355 3.5 9.6 0.00 0.00 0.00 57 1010.0
20260505162148 44 340 4.3 9.6 0.00 0.00 0.00 56 1009.9
20260505161148 44 16 6.1 8.7 0.00 0.00 0.00 52 1009.9
20260505160148 44 357 4.3 8.7 0.00 0.00 0.00 55 1009.8
20260505153148 43 351 4.3 10.4 0.00 0.00 0.00 55 1009.6
20260505152148 43 5 6.1 9.6 0.00 0.00 0.00 51 1009.5
20260505151148 44 5 5.2 9.6 0.00 0.00 0.00 52 1009.5
20260505150148 44 2 3.5 9.6 0.00 0.00 0.00 53 1009.2
20260505140239 42 28 4.3 10.4 0.00 0.00 0.00 57 1008.6
20260505140148 42 28 4.3 10.4 0.00 0.00 0.00 57 1008.6
20260505130231 40 12 7.0 10.4 0.00 0.00 0.00 68 1008.6
20260505130148 40 12 7.0 10.4 0.00 0.00 0.00 68 1008.6
20260505124148 39 9 6.1 9.6 0.00 0.00 0.00 76 1008.4
20260505123147 39 6 5.2 8.7 0.00 0.00 0.00 78 1008.3
20260505122148 39 357 4.3 10.4 0.00 0.00 0.00 78 1008.3
20260505121148 39 21 5.2 9.6 0.00 0.00 0.00 78 1008.3
20260505120150 39 12 5.2 9.6 0.00 0.00 0.00 79 1008.3
20260505115401 39 13 5.2 9.6 0.00 0.00 0.00 79 1008.3
20260505115147 39 13 5.2 9.6 0.00 0.00 0.00 79 1008.3
20260505114148 39 6 4.3 8.7 0.00 0.00 0.00 78 1008.3
20260505113148 39 8 4.3 7.8 0.00 0.00 0.00 78 1008.4
20260505112147 39 3 5.2 9.6 0.00 0.00 0.00 80 1008.4
20260505111147 38 350 4.3 8.7 0.00 0.00 0.00 81 1008.4
20260505110149 38 354 3.5 7.0 0.00 0.00 0.00 80 1008.3
20260505102147 39 343 2.6 7.8 0.00 0.00 0.00 78 1008.2
20260505101147 39 351 3.5 7.0 0.00 0.00 0.00 78 1008.3
20260505100147 39 351 3.5 7.0 0.00 0.00 0.00 77 1008.3
20260505095147 40 349 3.5 6.1 0.00 0.00 0.00 76 1008.3
20260505094147 40 343 2.6 7.0 0.00 0.00 0.00 1008.4
20260505093148 41 344 2.6 6.1 0.00 0.00 0.00 76 1008.5
20260505092147 41 343 3.5 7.8 0.00 0.00 0.00 74 1008.4
20260505091147 41 3 4.3 7.0 0.00 0.00 0.00 74 1008.4
20260505090147 40 352 3.5 7.0 0.00 0.00 0.00 1008.5
20260505085148 40 327 2.6 6.1 0.00 0.00 0.00 74 1008.5
20260505084147 41 324 3.5 7.8 0.00 0.00 0.00 73 1008.6
20260505083148 41 331 4.3 8.7 0.00 0.00 0.00 74 1008.7
20260505082147 40 330 3.5 7.8 0.00 0.00 0.00 73 1008.7
20260505081147 41 324 2.6 7.8 0.00 0.00 0.00 72 1008.8
20260505080147 41 324 3.5 7.0 0.00 0.00 0.00 72 1008.7
20260505075147 41 327 3.5 8.7 0.00 0.00 0.00 72 1008.8
20260505074148 41 337 5.2 11.3 0.00 0.00 0.00 72 1008.8
20260505073147 41 328 1.7 10.4 0.00 0.00 0.00 71 1008.8
20260505072147 41 342 4.3 10.4 0.00 0.00 0.00 71 1008.8
20260505071147 41 351 5.2 9.6 0.00 0.00 0.00 73 1008.7
20260505070148 41 335 3.5 8.7 0.00 0.00 0.00 72 1008.7
20260505065147 41 337 3.5 9.6 0.00 0.00 0.00 72 1008.6
20260505064147 42 330 2.6 11.3 0.00 0.00 0.00 72 1008.5
20260505063147 42 336 4.3 9.6 0.00 0.00 0.00 71 1008.7
20260505062147 42 353 3.5 10.4 0.00 0.00 0.00 72 1008.8
20260505061147 41 360 3.5 10.4 0.00 0.00 0.00 1008.8
20260505060147 41 338 5.2 8.7 0.00 0.00 0.00 74 1008.8
20260505055147 41 340 4.3 9.6 0.00 0.00 0.00 73 1008.7
20260505054147 42 333 3.5 9.6 0.00 0.00 0.00 73 1008.8
20260505053148 42 341 4.3 8.7 0.00 0.00 0.00 74 1008.8
20260505052148 42 330 4.3 8.7 0.00 0.00 0.00 73 1008.9
20260505051147 42 327 3.5 11.3 0.00 0.00 0.00 73 1008.8
20260505050147 42 349 7.0 13.0 0.00 0.00 0.00 73 1009.1
20260505041147 42 1 5.2 15.6 0.00 0.00 0.00 71 1009.0
20260505040148 43 353 7.0 13.9 0.00 0.00 0.00 71 1008.8
20260505035147 43 354 5.2 12.2 0.00 0.00 0.00 71 1008.7
20260505034147 43 2 7.0 12.2 0.00 0.00 0.00 71 1008.7
20260505033148 43 4 7.8 12.2 0.00 0.00 0.00 69 1008.7
20260505032147 44 360 5.2 13.9 0.00 0.00 0.00 68 1008.5
20260505031147 44 3 6.1 11.3 0.00 0.00 0.00 68 1008.4
20260505030148 44 357 6.1 13.0 0.00 0.00 0.00 66 1008.2
20260505025147 44 2 5.2 13.0 0.00 0.00 0.00 1008.3
20260505024147 45 356 7.0 14.8 0.00 0.00 0.00 63 1008.1
20260505023149 46 346 6.1 13.9 0.00 0.00 0.00 61 1008.2
20260505022147 46 346 7.0 13.0 0.00 0.00 0.00 63 1008.0
20260505021235 45 4 6.1 13.0 0.00 0.00 0.00 65 1007.8
20260505021147 45 4 6.1 13.0 0.00 0.00 0.00 65 1007.8
20260505020147 46 359 6.1 11.3 0.00 0.00 0.00 64 1007.9
20260505015147 46 11 6.1 13.0 0.00 0.00 0.00 64 1007.9
20260505014218 48 8 5.2 13.0 0.00 0.00 0.00 62 1008.0
20260505014147 48 8 5.2 13.0 0.00 0.00 0.00 62 1008.0
20260505013147 48 2 7.8 13.9 0.00 0.00 0.00 61 1008.0
20260505012147 48 360 6.1 13.9 0.00 0.00 0.00 59 1008.0
20260505011147 49 360 6.1 11.3 0.00 0.00 0.00 55 1008.2
20260505010148 49 333 6.1 12.2 0.00 0.00 0.00 53 1008.3
20260505005147 50 342 5.2 11.3 0.00 0.00 0.00 51 1008.3
20260505004149 49 2 5.2 13.0 0.00 0.00 0.00 54 1008.2
20260505003147 49 354 7.0 14.8 0.00 0.00 0.00 55 1008.3